[[{"header":{"parameterUnit":"m.s-1","parameterCategory":1,"la1":30.2991,"la2":30.254,"lo1":-89.0895,"lo2":-89.0444,"dy":0.0017,"dx":0.0017,"nx":28,"ny":28,"refTime":"2026-02-02T03:00:00:Z","depth":0,"parameterNumber":2,"parameterNumberName":"U-component_of_WINDS"},"data":[0,0,0,0,0,0,0,0,0,0,0,0,0,0,0,0,0,0,0,0,0,0,0,0,0,0,0,0,0,0,0,0,0,0,0,0,0,0,0,0,0,0,0,0,0,0,0,0,0,0,0,0,0,0,0,0,0,0,2.5832,2.5833,0,2.5915,2.5916,2.5917,2.5842,2.5839,2.5836,2.5833,2.5917,2.5922,2.5927,0,0,0,0,0,0,0,0,0,0,0,0,0,2.5609,2.5614,2.5832,2.5833,2.5834,2.5915,2.5916,2.5917,2.5843,2.5839,2.5836,2.5832,2.5916,2.5921,2.5928,0,0,0,0,0,0,0,0,0,0,0,0,0,2.5701,2.5615,2.5832,2.5807,2.5805,2.5915,2.5916,2.5917,2.5844,2.5839,2.5835,2.583,2.5914,2.5921,2.5928,2.6066,0,0,2.5952,2.5955,0,0,0,0,0,0,0,0,2.5695,2.5709,2.5809,2.5809,2.5807,2.5864,2.5868,2.5967,2.5845,2.5829,2.5833,2.5828,2.5903,2.5911,2.5937,2.607,2.6074,2.5952,2.5957,2.596,2.5962,0,0,0,0,0,0,0,2.5689,2.5705,2.5865,2.5811,2.581,2.5791,2.5799,2.5886,2.589,2.583,2.5825,2.5836,2.5901,2.593,2.5938,2.6075,2.5952,2.5959,2.5963,2.5966,2.6327,2.6332,0,0,0,0,0,0,2.5686,2.57,2.5862,2.5867,2.5739,2.5799,2.5808,2.585,2.5889,2.5891,2.584,2.5832,2.5919,2.5929,2.5941,2.6105,2.596,2.5967,2.5971,2.6322,2.6328,2.6333,0,0,0,0,0,0,2.5681,2.5701,2.5859,2.5782,2.5801,2.5808,2.5856,2.5854,2.5882,2.5897,2.5897,2.5868,2.5916,2.593,2.6036,2.6107,2.597,2.5977,2.6316,2.6324,2.6331,2.6435,0,0,0,0,0,0,2.5675,2.57,2.5752,2.5784,2.5805,2.5953,2.586,2.5859,2.5895,2.5886,2.5923,2.5924,2.5913,2.6025,2.6043,2.6115,2.5983,2.6309,2.6319,2.6328,2.6425,2.6445,2.6462,0,0,0,0,0,2.5667,2.5777,2.5755,2.5775,2.5871,2.5957,2.5969,2.5954,2.5901,2.5954,2.5964,2.5923,2.6097,2.6036,2.6057,2.6131,2.6305,2.6317,2.6327,2.6417,2.6441,2.6462,0,0,0,0,0,0,2.5752,2.5781,2.5756,2.588,2.5917,2.5944,2.601,2.598,2.6032,2.6022,2.6001,2.601,2.6122,2.6137,2.607,2.6268,2.6192,2.6208,2.6253,2.6276,2.6295,2.6288,2.599,0,0,0,0,0,2.5785,2.5853,2.5874,2.5981,2.6001,2.6003,2.604,2.6026,2.6062,2.6077,2.6095,2.6132,2.6195,2.6236,2.6295,2.6427,2.6434,2.6489,2.6507,2.6523,2.6536,2.6608,2.6633,2.637,2.637,2.637,0,0,2.5854,2.5878,2.5922,2.5999,2.6026,2.6097,2.6016,2.6094,2.6146,2.6089,2.619,2.6205,2.6245,2.6365,2.6419,2.6381,2.6611,2.6537,2.6549,2.6554,2.6623,2.6648,2.667,2.6378,2.6377,2.6376,0,0,2.6016,2.6041,2.6133,2.6163,2.6205,2.6205,2.6228,2.6261,2.6268,2.637,2.6328,2.6391,2.6499,2.653,2.656,2.6736,2.6701,2.6756,2.6852,2.6923,2.6943,2.6962,2.7025,2.7048,2.677,2.677,2.677,0,2.6096,2.6201,2.6185,2.6266,2.6302,2.6254,2.6348,2.6377,2.6436,2.6461,2.6419,2.6556,2.6579,2.6706,2.675,2.6775,2.6801,2.6751,2.6942,2.696,2.6977,2.7037,2.7061,2.6776,2.6776,2.6775,2.6774,0,2.6298,2.6372,2.6441,2.6501,2.6544,2.6631,2.6628,2.6674,2.6657,2.6662,2.6767,2.6794,2.6858,2.6888,2.6871,2.7013,2.6989,2.6945,2.6868,2.7009,2.7065,2.7087,2.6786,2.6783,2.6781,2.678,0,0,2.6514,2.6564,2.659,2.6617,2.6661,2.6718,2.6804,2.6867,2.6907,2.695,2.7021,2.7116,2.7076,2.711,2.7097,2.7159,2.7298,2.7107,2.7108,2.7142,2.7457,2.7489,2.7516,2.7275,2.728,2.7283,2.7453,0,2.6677,2.6826,2.6815,2.6956,2.7024,2.6982,2.7056,2.7092,2.71,2.7159,2.7167,2.7235,2.7177,2.7197,2.7257,2.7268,2.7361,2.7256,2.7341,2.7345,2.7332,2.7545,2.7579,2.7739,2.7475,2.7479,2.7481,0,2.6887,2.6939,2.7087,2.7122,2.715,2.7218,2.7276,2.7333,2.7373,2.7374,2.7414,2.7391,2.7478,2.7401,2.752,2.7449,2.7484,2.7495,2.7501,2.7508,2.7421,2.7558,2.7789,2.7813,2.7516,2.7513,2.7511,0,2.703,2.7137,2.7239,2.7263,2.7307,2.7356,2.7376,2.7411,2.7451,2.7502,2.7527,2.7587,2.762,2.7668,2.7662,2.7606,2.7784,2.7706,2.7787,2.7788,2.7826,2.7823,2.8066,2.7849,2.7849,2.7849,2.7848,0,2.7214,2.7306,2.7304,2.7367,2.747,2.7456,2.7558,2.7573,2.7605,2.7671,2.7637,2.77,2.7688,2.775,2.7746,2.7847,2.7862,2.7865,2.7863,2.7868,2.7868,2.789,2.7878,2.7855,2.7854,2.7852,2.7851,0,2.739,2.7392,2.7501,2.7534,2.7545,2.7619,2.7647,2.7707,2.7713,2.7797,2.7816,2.7825,2.7897,2.7896,2.7977,2.7975,2.8098,2.8083,2.8084,2.8081,2.8163,2.8155,2.8428,2.8463,2.8224,2.8226,2.8228,0,2.7506,2.7576,2.7618,2.766,2.7683,2.7751,2.7791,2.7782,2.7825,2.7877,2.7931,2.8,2.8054,2.8171,2.8185,2.8248,2.8234,2.8325,2.8243,2.8246,2.8235,2.8231,2.8238,2.8341,2.8344,2.8346,2.8348,0,2.7713,2.7711,2.7771,2.7832,2.7882,2.7929,2.7973,2.8009,2.8004,2.8055,2.8128,2.8171,2.8255,2.8324,2.8385,2.8405,2.8377,2.8374,2.8396,2.8401,2.8399,2.8401,2.8128,2.8367,2.8365,2.8364,2.8363,2.8362,2.7863,2.7924,2.7963,2.8031,2.8063,2.8105,2.8163,2.8177,2.8239,2.8307,2.8297,2.838,2.8419,2.8498,2.8524,2.8589,2.8556,2.8589,2.8597,2.8605,2.8614,2.839,2.86,2.8599,2.8599,2.8598,2.8598,0,2.8068,2.8091,2.8154,2.8217,2.8271,2.824,2.8287,2.8334,2.8407,2.8447,2.8502,2.8587,2.8654,2.8675,2.874,2.8787,2.8776,2.8805,2.8801,2.8806,2.8639,2.8613,2.8813,2.8813,2.8813,2.8813,2.8813,2.8813,2.8181,2.8282,2.8286,2.8403,2.8426,2.8507,2.8536,2.8575,2.8607,2.8704,2.876,2.8773,2.8805,2.8873,2.8933,2.8938,2.8963,2.8998,2.8997,2.8839,2.8818,2.8797,2.8773,2.9004,2.9004,2.9159,2.916,2.9161]},{"header":{"parameterUnit":"m.s-1","parameterCategory":1,"la1":30.2991,"la2":30.254,"lo1":-89.0895,"lo2":-89.0444,"dy":0.0017,"dx":0.0017,"nx":28,"ny":28,"refTime":"2026-02-02T03:00:00:Z","depth":0,"parameterNumber":3,"parameterNumberName":"V-component_of_WINDS"},"data":[0,0,0,0,0,0,0,0,0,0,0,0,0,0,0,0,0,0,0,0,0,0,0,0,0,0,0,0,0,0,0,0,0,0,0,0,0,0,0,0,0,0,0,0,0,0,0,0,0,0,0,0,0,0,0,0,0,0,-2.4602,-2.4604,0,-2.473,-2.4731,-2.4733,-2.474,-2.4738,-2.4737,-2.4736,-2.4864,-2.4869,-2.4874,0,0,0,0,0,0,0,0,0,0,0,0,0,-2.4365,-2.4369,-2.4602,-2.4604,-2.4605,-2.4729,-2.4731,-2.4733,-2.474,-2.4738,-2.4737,-2.4735,-2.4863,-2.4868,-2.4874,0,0,0,0,0,0,0,0,0,0,0,0,0,-2.4477,-2.437,-2.4602,-2.4624,-2.4627,-2.4729,-2.4731,-2.4733,-2.4741,-2.4738,-2.4736,-2.4734,-2.4861,-2.4868,-2.4875,-2.4963,0,0,-2.4897,-2.49,0,0,0,0,0,0,0,0,-2.4471,-2.4486,-2.4619,-2.4623,-2.4627,-2.4717,-2.4695,-2.481,-2.4741,-2.4697,-2.4736,-2.4733,-2.4817,-2.4828,-2.4856,-2.4969,-2.4974,-2.4898,-2.4902,-2.4905,-2.4907,0,0,0,0,0,0,0,-2.4463,-2.4481,-2.4653,-2.4621,-2.4626,-2.4627,-2.4641,-2.4717,-2.4768,-2.4701,-2.4702,-2.4717,-2.4818,-2.4849,-2.4859,-2.4976,-2.4897,-2.4904,-2.4908,-2.4911,-2.5168,-2.517,0,0,0,0,0,0,-2.4451,-2.4474,-2.4649,-2.4656,-2.4542,-2.4633,-2.4649,-2.469,-2.4767,-2.4777,-2.4719,-2.4717,-2.4838,-2.4851,-2.4864,-2.4972,-2.4905,-2.4912,-2.4916,-2.5165,-2.5168,-2.5171,0,0,0,0,0,0,-2.4446,-2.4467,-2.4643,-2.4566,-2.4588,-2.464,-2.4686,-2.4694,-2.4724,-2.478,-2.4789,-2.4741,-2.4837,-2.4854,-2.4938,-2.4976,-2.4915,-2.4921,-2.5162,-2.5166,-2.517,-2.5188,0,0,0,0,0,0,-2.4439,-2.4465,-2.4499,-2.4566,-2.4592,-2.4716,-2.4689,-2.4698,-2.4737,-2.4736,-2.4803,-2.4813,-2.4836,-2.4928,-2.4945,-2.4985,-2.4927,-2.5159,-2.5164,-2.5169,-2.5184,-2.5192,-2.5198,0,0,0,0,0,-2.4431,-2.4498,-2.4501,-2.4522,-2.4636,-2.4718,-2.4733,-2.476,-2.474,-2.4774,-2.4811,-2.481,-2.4969,-2.4936,-2.4956,-2.4998,-2.5157,-2.5163,-2.5168,-2.5181,-2.519,-2.5198,0,0,0,0,0,0,-2.4433,-2.4508,-2.4511,-2.4602,-2.4654,-2.4719,-2.4763,-2.4769,-2.4826,-2.4823,-2.4853,-2.4868,-2.4952,-2.4984,-2.4946,-2.5088,-2.5061,-2.5071,-2.5063,-2.5073,-2.508,-2.507,-2.4933,0,0,0,0,0,-2.4445,-2.4506,-2.4567,-2.4642,-2.4668,-2.4711,-2.4748,-2.4764,-2.4819,-2.484,-2.4883,-2.4935,-2.4997,-2.5037,-2.5097,-2.5189,-2.5204,-2.5228,-2.5235,-2.5241,-2.5249,-2.53,-2.5311,-2.519,-2.519,-2.519,0,0,-2.4468,-2.4517,-2.4553,-2.4644,-2.4686,-2.4748,-2.473,-2.4796,-2.4842,-2.485,-2.4933,-2.4966,-2.5026,-2.5115,-2.5156,-2.5144,-2.5286,-2.5248,-2.5252,-2.5257,-2.5307,-2.5318,-2.5328,-2.5194,-2.5193,-2.5192,0,0,-2.4543,-2.4586,-2.4653,-2.4696,-2.476,-2.4788,-2.4805,-2.487,-2.4892,-2.4976,-2.4983,-2.5039,-2.5144,-2.5187,-2.5223,-2.5315,-2.5317,-2.5334,-2.5371,-2.542,-2.543,-2.5438,-2.5471,-2.5482,-2.5342,-2.5342,-2.5342,0,-2.4564,-2.4658,-2.4687,-2.4753,-2.4793,-2.4804,-2.4872,-2.4912,-2.4992,-2.5019,-2.5005,-2.5139,-2.518,-2.5279,-2.5302,-2.5331,-2.5349,-2.5326,-2.5426,-2.5435,-2.5444,-2.5475,-2.5487,-2.5344,-2.5344,-2.5343,-2.5343,0,-2.4681,-2.4746,-2.4793,-2.487,-2.4915,-2.4982,-2.502,-2.5063,-2.5075,-2.5106,-2.519,-2.5241,-2.5312,-2.5337,-2.5349,-2.5438,-2.5428,-2.542,-2.5393,-2.5456,-2.5486,-2.5498,-2.5346,-2.5345,-2.5345,-2.5345,0,0,-2.4759,-2.4853,-2.4869,-2.4904,-2.4977,-2.5027,-2.5095,-2.5165,-2.52,-2.5255,-2.5312,-2.5402,-2.5395,-2.5436,-2.5454,-2.5497,-2.5567,-2.5484,-2.5486,-2.5497,-2.5667,-2.5671,-2.5685,-2.5569,-2.5572,-2.5574,-2.5661,0,-2.4841,-2.4961,-2.4989,-2.5093,-2.5153,-2.5166,-2.5225,-2.5275,-2.5306,-2.5361,-2.5395,-2.5458,-2.5444,-2.5469,-2.5512,-2.5549,-2.5601,-2.5543,-2.5622,-2.5624,-2.5605,-2.57,-2.5706,-2.5786,-2.5673,-2.5675,-2.5677,0,-2.4952,-2.501,-2.512,-2.5184,-2.5211,-2.5263,-2.5329,-2.5383,-2.544,-2.546,-2.5505,-2.5519,-2.559,-2.5561,-2.5659,-2.5619,-2.5653,-2.5676,-2.568,-2.5687,-2.5653,-2.5709,-2.5812,-2.5824,-2.5695,-2.5694,-2.5692,0,-2.4996,-2.5103,-2.5182,-2.5212,-2.529,-2.5326,-2.536,-2.5416,-2.5456,-2.5514,-2.5541,-2.5606,-2.5642,-2.5692,-2.5723,-2.5699,-2.5818,-2.5792,-2.5835,-2.5834,-2.5858,-2.5856,-2.5967,-2.5882,-2.5882,-2.5882,-2.5882,0,-2.5084,-2.515,-2.5203,-2.5252,-2.5326,-2.5358,-2.5431,-2.5466,-2.5515,-2.5571,-2.5586,-2.5637,-2.5676,-2.5733,-2.5758,-2.5835,-2.5851,-2.5868,-2.5873,-2.5866,-2.5863,-2.5887,-2.5882,-2.5885,-2.5885,-2.5884,-2.5883,0,-2.5146,-2.5184,-2.5271,-2.5338,-2.5356,-2.5408,-2.5465,-2.5513,-2.5544,-2.5614,-2.5633,-2.5682,-2.5749,-2.5786,-2.5871,-2.5888,-2.5973,-2.5977,-2.5954,-2.5956,-2.5997,-2.5992,-2.6126,-2.6145,-2.6049,-2.605,-2.605,0,-2.5198,-2.525,-2.5322,-2.5361,-2.5396,-2.5457,-2.5499,-2.5533,-2.5575,-2.5645,-2.5684,-2.5753,-2.581,-2.5918,-2.5961,-2.6026,-2.603,-2.6073,-2.604,-2.6031,-2.603,-2.6026,-2.6031,-2.6078,-2.6079,-2.6079,-2.608,0,-2.5287,-2.5304,-2.5363,-2.543,-2.5479,-2.5532,-2.5586,-2.5616,-2.5659,-2.5706,-2.5776,-2.582,-2.5907,-2.5975,-2.6044,-2.6079,-2.6087,-2.609,-2.6104,-2.6096,-2.608,-2.6088,-2.5968,-2.6087,-2.6086,-2.6086,-2.6085,-2.6085,-2.5345,-2.5392,-2.545,-2.5516,-2.556,-2.5609,-2.5657,-2.5695,-2.5754,-2.5828,-2.5845,-2.5919,-2.5976,-2.6069,-2.6106,-2.6164,-2.6155,-2.6175,-2.618,-2.6184,-2.6185,-2.6072,-2.6177,-2.6177,-2.6176,-2.6176,-2.6176,0,-2.5434,-2.5473,-2.5533,-2.5607,-2.5659,-2.5663,-2.5723,-2.5765,-2.583,-2.5883,-2.5939,-2.602,-2.6086,-2.6135,-2.6203,-2.624,-2.6245,-2.6256,-2.6253,-2.6261,-2.6189,-2.617,-2.6251,-2.6251,-2.6251,-2.6251,-2.6251,-2.6251,-2.5486,-2.5565,-2.5589,-2.5689,-2.5727,-2.58,-2.5833,-2.5879,-2.5922,-2.6011,-2.6067,-2.6098,-2.615,-2.6222,-2.6283,-2.6296,-2.6319,-2.633,-2.6343,-2.6274,-2.6266,-2.6259,-2.6241,-2.6335,-2.6336,-2.641,-2.6411,-2.6412]}]]